Wind_Speed
37 36 35 34 33 33 32 32 31 30 29 28 27 26 26 25 25 25 25 25 25 25 24 23 23 22 21 20 19 18 16 15 15 14 14 13 12 12 11 11 10 10 9 8 8 8 8 8 8 8 8 9 9 9 9 9 10 10 10 10 10 10 11 11 11 11 12 13 12 12 13 13 12 11 11 11 12 11 11 12 13 15 15 15 16 17 17 16
38 37 36 36 35 34 34 33 33 32 31 30 29 28 28 27 27 27 27 27 27 26 25 25 24 23 22 21 20 19 17 16 15 15 14 14 13 12 12 11 11 10 9 9 9 9 9 9 9 9 9 10 10 11 11 11 11 11 12 12 12 12 12 12 13 13 13 13 13 13 14 14 13 12 12 13 13 13 14 14 15 16 16 17 17 17 17 17
40 39 38 37 36 36 35 35 34 34 33 31 31 30 29 29 29 29 29 29 29 28 27 26 25 24 24 22 21 20 18 17 16 16 15 14 14 13 12 11 11 10 10 10 9 9 9 9 10 10 11 11 12 13 13 13 13 13 13 14 14 14 14 14 14 14 14 14 14 14 15 15 14 13 13 14 15 16 16 16 17 17 17 18 18 18 17 17
42 41 39 38 37 37 36 36 36 35 34 33 32 32 31 31 31 31 31 31 30 29 28 28 27 26 25 24 23 21 19 18 17 16 16 15 14 14 13 12 11 11 11 10 10 9 10 10 10 11 12 12 13 14 14 15 14 14 15 15 16 16 15 15 15 16 16 15 15 15 16 16 16 15 15 16 17 18 19 19 19 18 18 19 20 19 18 17
44 42 40 39 38 38 37 37 36 36 35 35 34 33 33 33 32 33 33 33 32 31 30 29 28 27 27 25 24 23 21 20 19 18 17 16 15 14 14 13 13 12 11 11 10 10 10 11 11 11 12 13 14 15 15 16 16 16 16 16 17 17 16 16 16 17 17 17 16 16 17 17 17 17 17 17 18 19 20 21 21 20 20 20 21 21 20 18
45 43 42 40 40 39 38 38 37 37 37 36 35 35 35 34 34 34 35 35 34 33 31 31 30 29 28 27 26 24 23 21 20 19 18 17 17 16 15 14 14 13 13 12 11 11 11 11 11 12 13 14 15 16 16 16 17 17 17 18 18 18 17 17 17 18 18 18 18 18 18 18 18 18 18 18 19 20 21 23 23 22 21 21 22 22 21 20
46 45 43 42 41 41 40 39 39 38 38 38 37 36 36 36 36 36 37 36 36 34 33 32 31 30 30 29 28 26 25 23 21 20 20 19 18 17 17 16 15 15 14 14 13 13 12 12 12 12 13 14 15 16 16 16 17 17 18 18 19 19 18 18 18 18 19 20 20 20 20 20 19 20 20 20 21 21 22 23 24 24 23 23 23 23 22 21
48 46 45 44 43 42 42 41 41 40 40 39 39 38 38 38 38 38 38 38 37 36 35 34 33 32 31 30 29 28 27 25 23 22 21 20 20 19 19 18 17 17 16 16 15 14 14 13 13 13 14 15 15 15 16 16 17 17 18 18 19 19 18 19 19 20 20 20 21 22 22 22 21 21 21 22 23 23 23 24 25 25 25 24 23 22 22 21
49 48 46 45 45 44 44 43 42 42 42 41 41 40 40 40 40 40 40 40 39 38 37 36 35 34 33 32 31 30 28 27 25 24 23 22 21 21 20 20 19 19 18 18 17 16 15 15 14 14 14 15 16 16 15 16 16 17 17 18 18 19 19 20 21 22 22 22 22 23 25 23 22 22 22 24 25 24 24 25 26 27 26 25 23 21 21 20
49 48 48 47 46 45 45 44 44 44 43 43 43 43 42 42 42 42 42 42 42 41 39 39 38 36 35 34 32 31 30 28 27 26 25 24 23 22 22 21 21 20 20 19 19 18 17 17 16 15 15 15 16 16 16 16 16 16 17 18 19 20 21 23 24 25 24 24 24 25 26 25 24 23 23 27 27 25 26 26 27 27 26 25 23 21 20 20
49 48 48 47 47 46 46 46 45 45 45 45 45 45 44 44 44 44 44 44 43 43 42 41 40 39 37 36 34 33 31 30 29 27 26 25 25 24 23 23 22 22 21 21 21 20 19 19 18 17 17 16 17 17 17 17 18 18 19 20 21 22 24 25 26 27 26 26 26 26 27 25 24 24 25 28 27 26 26 26 26 26 25 24 22 21 20 20
48 48 48 47 47 47 47 46 46 45 46 46 46 46 46 46 46 45 46 46 45 45 44 43 42 40 39 37 36 34 32 31 30 29 28 27 26 26 25 25 24 24 23 23 23 22 22 21 20 19 18 18 18 18 19 19 20 20 21 22 23 24 26 27 28 28 27 28 27 28 27 24 24 25 26 27 26 26 25 24 25 24 24 23 22 22 21 21
48 48 48 47 47 47 47 47 46 46 46 46 47 47 48 48 47 47 47 48 47 47 46 45 44 42 41 39 38 36 34 33 32 31 30 29 28 27 27 26 26 26 25 25 24 24 24 23 22 21 20 20 20 20 20 20 21 22 22 23 25 26 27 28 28 27 27 27 27 29 27 21 24 28 26 26 26 25 25 24 24 23 23 23 22 22 22 22
48 48 48 48 47 47 47 47 46 46 46 47 47 48 49 49 49 49 49 49 49 49 48 47 45 44 42 41 40 38 36 35 33 32 31 31 30 29 28 28 28 27 27 27 26 26 25 25 24 23 22 22 21 21 21 21 22 23 24 25 26 27 27 27 27 26 25 26 27 29 28 21 23 29 28 27 27 26 26 26 25 24 24 23 23 23 23 24
48 47 48 48 48 48 47 47 46 46 46 47 47 48 49 50 50 50 50 50 51 50 50 49 48 46 44 43 41 40 38 36 35 34 33 32 31 31 30 30 29 29 28 28 28 27 27 26 26 25 25 24 23 23 23 23 23 24 25 26 27 27 27 26 25 25 26 27 28 30 30 23 23 30 30 28 28 27 27 27 26 26 26 25 25 26 26 26
48 48 48 48 48 48 48 47 47 47 47 47 47 48 49 50 50 50 51 51 52 52 51 50 49 48 46 44 43 41 39 38 37 36 35 34 33 32 32 31 31 30 30 29 29 29 28 28 28 27 27 26 25 24 24 24 24 25 27 28 28 27 27 25 24 26 27 29 29 30 31 26 24 29 30 29 28 27 26 26 26 26 25 26 26 27 28 28
48 49 48 48 48 48 48 47 47 47 47 47 47 48 48 49 50 51 51 52 52 52 52 52 51 50 48 46 44 42 41 40 39 38 37 36 35 34 34 33 33 32 32 31 31 30 30 30 29 29 28 27 26 25 25 26 26 28 29 28 28 27 26 25 25 27 28 30 30 31 31 26 24 28 28 28 28 27 26 26 25 25 25 26 27 28 28 29
49 49 49 49 48 48 48 48 48 48 47 47 47 48 48 49 50 50 51 52 53 54 54 53 52 51 49 46 44 43 42 42 41 40 39 38 37 36 36 35 34 34 34 33 32 31 31 31 31 30 29 27 26 26 28 28 28 30 29 29 28 28 27 26 26 28 29 30 31 31 29 24 24 26 27 27 29 27 26 26 25 25 26 28 29 29 30 30
50 49 49 49 49 49 48 48 48 48 48 48 48 48 49 49 50 51 52 52 53 54 53 53 51 51 49 47 46 45 45 44 43 42 41 40 39 38 37 37 36 36 35 34 34 33 33 32 32 31 29 27 27 29 30 30 30 31 30 30 29 29 29 27 28 30 31 31 31 30 29 25 23 24 27 29 29 27 25 25 25 26 28 29 31 31 31 31
51 51 50 50 50 49 49 49 49 49 49 48 48 48 49 49 50 51 51 51 52 52 52 52 51 52 51 49 48 47 46 46 44 43 43 42 41 40 39 39 38 38 37 36 36 34 34 34 33 30 29 29 30 32 32 31 31 32 32 32 31 31 30 28 30 32 32 33 31 30 31 28 24 24 27 30 29 26 24 25 26 27 29 31 32 32 32 33
53 53 52 51 51 50 50 50 50 50 49 49 49 49 49 49 50 50 50 51 51 51 52 52 52 52 52 51 49 48 47 46 46 45 44 43 43 42 42 41 40 39 38 37 37 36 35 35 32 30 30 32 33 34 33 32 32 33 34 34 34 33 31 29 32 34 34 36 33 32 33 30 27 27 28 30 29 26 26 27 27 28 30 32 32 32 33 35
55 54 54 53 53 52 51 51 51 50 50 50 50 50 50 50 50 51 51 52 52 52 52 53 53 53 52 52 50 49 48 47 47 46 46 45 45 45 44 43 42 40 39 38 38 37 37 35 33 32 33 34 35 35 34 34 34 35 36 36 36 35 33 32 33 35 37 38 36 35 35 33 31 30 28 28 29 28 29 30 29 30 32 32 32 33 35 36
57 56 55 55 54 54 53 53 53 52 51 51 51 50 51 51 51 52 52 53 53 53 53 53 53 53 53 53 52 51 50 49 48 48 48 48 47 47 46 44 42 41 41 40 39 39 38 36 35 35 36 35 35 35 35 35 36 37 37 38 38 35 35 35 35 37 39 40 39 38 38 36 33 31 28 28 29 30 30 31 31 32 32 33 33 34 35 36
59 58 57 56 56 56 55 55 54 53 53 53 52 51 52 52 52 53 53 55 55 54 54 54 54 54 53 53 53 52 52 52 51 50 50 49 48 47 46 44 44 43 43 41 41 40 39 38 38 37 36 36 36 36 37 38 39 39 39 40 39 36 37 38 39 40 40 41 41 41 41 38 34 32 29 27 29 29 29 30 32 32 33 33 34 34 35 36
61 60 59 58 58 57 57 57 55 54 54 54 54 54 54 53 53 54 54 57 58 56 54 55 55 55 54 54 54 54 54 54 52 51 51 49 48 48 47 46 46 45 43 43 43 42 40 40 40 38 37 37 38 38 39 41 40 40 41 41 39 38 39 40 41 42 42 43 42 42 44 40 34 32 29 27 28 28 27 30 31 32 33 33 33 33 33 34
63 63 62 61 60 59 59 58 56 56 56 56 56 56 56 55 55 55 55 58 61 58 55 55 56 56 56 56 56 54 55 56 53 52 51 50 49 49 48 48 47 46 44 44 44 44 43 41 41 40 39 39 41 42 42 42 42 43 43 41 40 40 41 41 42 43 44 44 43 43 45 42 36 32 29 29 29 27 27 31 32 32 32 32 33 33 34 34
64 63 63 63 62 61 60 58 57 58 57 57 59 58 57 57 57 57 56 60 63 60 57 56 57 58 57 56 56 55 58 57 53 52 52 51 50 50 50 49 48 47 45 45 46 46 45 43 42 42 43 43 44 44 43 43 44 46 44 40 40 40 41 42 43 44 45 46 46 45 44 44 39 32 30 32 31 28 29 32 33 33 33 33 34 35 35 34
65 65 65 64 64 63 62 61 59 58 58 60 61 60 59 59 59 59 58 61 65 63 59 59 59 60 60 58 58 58 60 59 55 53 52 51 51 51 51 50 49 48 46 47 48 48 47 46 45 45 46 47 46 45 44 44 46 45 43 41 40 40 42 43 44 45 47 47 48 45 42 44 41 35 35 35 31 30 31 32 33 34 35 35 36 36 35 34
64 65 66 66 66 65 64 63 61 59 60 61 62 62 62 62 62 61 61 64 66 65 63 62 61 62 62 61 60 60 61 61 58 55 53 53 53 52 52 50 49 49 49 49 49 49 49 49 48 47 48 47 46 44 44 44 44 43 42 42 41 41 42 44 46 46 48 48 47 43 41 43 43 41 39 37 34 33 33 33 34 35 36 37 38 37 35 34
64 63 64 66 66 65 65 64 63 62 62 62 63 63 63 64 64 64 65 67 66 66 66 64 63 63 63 62 62 62 62 61 59 57 55 54 54 53 52 51 50 51 51 50 50 51 51 51 50 49 47 45 44 44 43 42 41 40 40 41 41 42 43 45 46 46 47 48 44 42 42 43 47 46 40 36 36 36 35 34 34 34 35 36 37 36 35 33
64 64 64 64 64 64 64 63 63 65 65 64 64 64 65 66 66 67 69 67 65 67 68 67 65 64 64 63 63 62 61 61 60 59 58 56 55 55 54 53 52 53 53 52 52 52 52 52 51 50 47 46 45 45 43 42 41 41 41 41 42 43 43 45 46 46 47 47 43 43 44 45 50 49 42 39 38 39 38 37 35 35 36 36 35 34 33 33
61 64 65 65 65 65 64 63 64 66 66 67 66 65 65 67 70 72 71 66 67 70 71 70 67 65 65 65 64 63 62 61 61 60 60 58 58 57 56 55 54 55 56 55 55 55 54 54 53 52 51 49 48 46 45 44 42 42 42 42 43 44 45 46 47 47 47 45 45 46 48 50 52 50 45 41 39 40 41 39 38 38 39 37 34 32 31 31
58 59 62 65 66 65 64 64 66 67 67 67 67 66 67 70 72 72 70 69 70 72 71 70 69 68 68 67 66 65 64 63 63 62 62 61 61 60 59 58 58 58 58 57 56 56 56 55 55 54 53 50 48 46 44 43 42 42 43 44 45 46 48 49 48 48 48 47 49 50 52 55 54 50 47 43 40 41 42 43 42 41 39 36 33 30 29 29
59 58 59 61 63 65 65 65 66 68 69 68 68 69 72 74 71 66 67 70 71 72 72 73 73 72 71 69 68 67 66 66 65 64 64 63 63 62 61 61 59 58 57 57 57 56 56 56 53 52 50 48 47 45 44 43 44 45 46 47 48 49 49 49 48 50 51 52 53 54 56 58 55 53 50 46 43 42 42 44 45 41 38 36 34 31 29 29
63 61 60 61 61 62 63 63 63 66 70 72 73 73 75 74 68 63 64 66 67 69 71 73 76 76 75 73 71 70 69 68 67 66 66 65 65 64 62 61 59 58 57 57 57 57 56 55 51 49 48 47 47 48 47 47 48 49 49 50 51 49 47 48 50 53 55 56 57 58 59 59 56 55 52 49 46 43 42 43 41 39 37 36 34 33 31 29
67 65 63 64 62 59 60 60 59 62 66 70 75 77 77 72 65 61 61 62 64 66 67 70 73 74 74 74 72 71 71 70 69 69 68 68 67 65 63 62 60 60 58 56 56 55 54 53 51 50 50 49 50 51 51 52 52 53 54 54 52 49 49 51 54 56 57 58 60 60 60 59 57 55 52 49 47 44 42 39 35 34 35 35 35 34 32 30
68 66 65 64 62 59 61 62 61 62 65 68 74 76 75 71 65 62 61 60 62 63 64 66 70 71 70 70 70 69 69 69 68 68 67 67 66 64 62 60 59 58 56 55 54 53 52 52 52 52 52 52 52 53 54 55 55 56 56 54 52 52 54 55 56 57 58 60 60 59 58 58 57 54 50 48 47 45 41 35 32 32 33 34 35 34 32 30
68 68 68 66 64 62 62 63 64 65 66 68 72 72 71 71 69 67 67 66 67 66 66 66 67 68 68 68 67 65 65 66 66 66 65 65 64 62 59 57 55 53 53 53 53 53 52 53 53 53 54 55 55 56 57 56 57 57 56 54 54 55 56 56 56 57 57 59 59 58 57 54 52 52 49 47 47 44 38 32 31 31 32 34 35 35 34 31
68 71 71 68 68 67 64 64 66 66 67 70 72 70 68 70 70 71 73 74 73 73 71 70 68 68 68 67 66 65 65 64 63 63 64 64 63 60 58 57 55 53 53 54 55 54 53 55 56 56 56 57 58 58 57 56 55 56 55 55 56 56 57 56 56 56 56 58 59 57 54 49 46 48 48 47 46 40 33 30 30 31 32 34 35 35 35 33
69 72 72 69 70 71 68 68 70 71 73 74 74 71 67 67 68 70 72 73 75 76 75 73 72 72 72 70 68 67 67 66 65 64 63 63 62 61 60 59 57 56 56 57 57 57 57 58 59 59 59 60 60 59 57 55 55 55 56 57 57 57 58 57 57 57 57 58 57 56 53 47 45 46 45 46 44 35 29 29 29 30 32 34 35 36 35 34
69 72 71 69 72 73 72 73 74 76 78 77 75 73 69 68 69 70 71 70 70 73 75 75 76 77 76 75 74 72 72 72 72 71 70 68 65 63 62 60 59 58 59 60 60 59 59 59 59 60 60 61 59 57 56 56 56 57 58 58 58 59 58 58 59 59 57 56 54 55 54 47 45 46 45 44 40 31 28 28 29 30 32 33 35 36 35 34
71 73 70 69 73 74 74 75 75 76 78 76 73 73 72 70 69 70 71 70 70 71 72 74 76 77 78 78 78 78 78 79 78 77 76 73 69 66 63 61 60 59 60 61 60 59 60 60 60 60 61 60 59 57 57 57 58 58 59 60 60 60 59 59 59 56 55 55 53 56 56 47 43 46 46 45 40 33 30 29 30 32 32 32 34 35 35 36
72 72 70 71 73 71 72 76 77 77 78 74 71 72 73 72 71 70 70 70 72 72 71 72 73 74 75 75 76 79 80 81 81 80 78 75 72 67 65 64 63 62 62 62 61 61 62 63 62 62 62 61 61 60 59 59 61 62 63 62 60 59 57 56 55 54 56 57 55 58 57 47 44 47 46 45 42 36 33 32 33 34 33 32 32 32 34 36
72 71 72 73 72 70 72 75 75 77 76 73 72 73 73 72 72 72 71 70 71 71 72 72 72 72 72 72 72 74 76 77 80 80 78 75 72 68 67 66 65 64 63 62 61 62 62 62 61 62 62 63 64 64 64 65 65 65 63 62 60 58 56 56 56 56 58 58 56 59 56 49 47 47 45 45 44 39 35 35 36 36 35 33 31 32 34 35
73 72 73 75 74 74 75 73 72 73 74 72 73 74 73 72 71 69 69 69 69 70 71 71 71 72 73 74 74 73 73 73 74 75 74 73 70 68 69 68 66 66 65 63 63 63 63 63 62 63 64 65 66 66 65 63 63 62 61 61 60 59 58 57 55 56 58 58 58 59 56 50 48 46 45 46 45 40 38 38 38 38 38 37 36 36 36 36
75 75 74 75 77 78 78 75 71 71 73 73 73 74 73 74 72 68 68 70 70 69 69 69 69 71 73 75 76 76 74 72 71 72 72 70 68 67 68 70 69 68 68 67 67 67 68 69 69 69 70 69 67 66 66 65 65 64 62 62 61 60 58 56 56 58 59 59 58 57 54 51 48 46 46 47 46 44 42 41 40 40 41 42 41 40 38 38
77 77 76 75 77 79 79 77 72 69 70 73 75 75 74 74 73 72 73 74 72 70 70 71 72 73 73 73 74 75 74 73 73 73 71 69 68 67 68 70 71 72 72 72 72 72 73 74 74 73 73 72 68 67 68 69 68 67 64 63 62 61 59 58 59 58 57 58 57 53 51 52 49 47 49 50 48 46 43 42 42 43 44 44 43 42 41 40
76 79 78 76 77 79 79 78 75 71 70 73 75 75 74 74 74 75 76 75 73 72 73 74 75 75 73 71 72 74 74 74 75 73 71 70 70 70 70 70 71 72 73 73 73 72 73 74 72 71 70 68 65 65 65 65 64 63 63 64 64 62 60 60 60 57 56 59 57 52 53 56 50 48 51 51 47 45 44 45 46 47 47 46 46 45 44 42
76 77 79 78 77 78 78 77 76 73 72 73 73 73 73 74 74 72 72 73 75 76 75 75 74 73 71 71 72 75 75 75 74 71 70 71 72 72 72 71 70 70 71 72 72 71 71 70 67 66 65 63 60 60 61 61 61 61 61 62 62 61 60 60 58 56 57 60 57 55 59 57 50 49 53 51 47 46 46 48 48 49 49 48 47 47 46 46
76 77 78 78 77 77 76 76 76 75 73 73 73 72 72 74 74 73 73 75 77 77 77 75 72 70 68 69 71 73 71 69 67 63 63 65 66 68 69 69 68 67 68 68 68 68 68 67 65 65 66 64 61 60 61 60 60 59 58 58 58 57 59 60 59 58 60 62 58 57 60 56 50 50 51 49 48 48 48 48 49 50 49 49 49 49 49 49
76 77 77 78 77 76 76 76 76 77 76 76 75 73 71 71 70 70 72 74 73 72 72 72 69 66 65 66 69 68 64 60 58 57 57 59 60 60 62 64 64 64 66 66 65 65 64 64 63 64 66 66 62 61 60 58 58 58 57 55 56 58 60 60 59 59 60 60 57 58 58 54 49 49 49 49 50 50 49 49 48 49 49 51 51 51 49 47
75 76 76 77 77 77 77 76 75 78 79 79 78 77 76 73 69 65 65 64 62 61 63 66 67 67 66 67 66 63 59 58 58 58 57 56 55 56 57 58 60 61 62 63 62 60 58 58 58 59 63 63 58 55 55 55 58 59 54 50 52 57 59 58 58 58 58 58 58 58 56 51 50 52 53 52 51 51 50 49 49 50 51 51 50 48 45 42
Wind_Direction
215 215 216 216 217 217 216 215 214 214 213 213 214 213 212 211 209 207 204 200 197 194 193 192 192 192 191 191 192 193 193 192 193 195 195 196 196 197 197 195 194 194 194 194 195 201 208 211 216 220 225 232 237 242 247 251 257 261 263 264 265 267 270 272 274 276 278 281 282 282 282 283 287 290 288 283 279 278 277 278 285 291 296 299 300 302 302 299
217 217 218 218 218 219 218 217 215 214 214 214 214 214 213 211 209 207 204 200 198 196 196 196 196 196 195 194 195 196 195 195 197 197 196 196 197 198 198 198 198 199 199 201 203 210 216 221 226 231 235 241 245 249 253 256 260 264 267 269 270 270 271 273 275 276 277 279 281 283 284 285 288 290 287 282 278 276 276 278 283 289 293 296 299 302 301 297
218 219 219 220 220 220 219 217 216 215 215 214 214 214 214 212 210 207 204 201 199 199 199 199 199 199 198 197 197 198 197 197 199 199 198 199 199 200 201 201 202 203 204 207 210 217 225 230 235 239 243 247 250 253 256 258 260 263 267 270 271 272 272 274 276 277 277 279 282 284 286 288 291 291 287 284 281 279 279 280 283 287 292 296 299 301 299 294
219 220 221 221 221 220 219 217 216 215 215 215 215 215 214 213 210 207 204 202 201 201 202 202 202 202 201 200 200 201 200 200 202 202 202 202 202 203 204 205 206 208 210 212 216 222 230 236 241 245 249 252 255 257 259 261 262 264 266 269 270 271 272 274 276 276 277 278 280 284 288 290 292 292 289 286 283 281 282 283 284 287 292 297 299 299 297 291
220 221 222 222 221 220 218 217 216 216 216 216 216 215 215 214 211 208 205 203 203 203 204 205 205 205 204 203 203 203 204 202 203 206 206 206 206 207 208 210 211 213 216 218 221 226 232 239 244 251 255 257 259 260 261 263 265 266 267 268 269 270 271 273 274 274 275 277 280 283 287 290 292 292 290 287 283 283 285 285 285 287 293 298 298 298 296 289
220 221 222 222 221 220 218 217 217 217 217 217 217 216 216 214 212 208 206 205 205 205 206 207 208 208 207 206 206 206 207 206 205 208 209 209 210 211 213 215 217 219 221 224 226 229 235 242 249 256 260 262 263 263 264 265 266 267 267 268 268 270 271 271 271 272 274 276 278 281 285 288 290 291 289 284 281 282 285 287 288 290 294 295 296 296 294 289
221 221 222 222 221 220 219 219 219 219 219 219 219 218 217 215 212 209 207 206 206 207 208 209 210 210 210 210 209 209 210 210 210 210 211 213 214 215 217 219 221 224 226 228 231 233 239 246 253 259 264 266 267 267 267 267 267 268 268 268 269 270 270 270 269 270 273 276 278 280 282 284 287 289 288 283 280 282 285 289 291 291 292 292 293 292 290 287
221 222 222 222 222 221 220 220 220 220 220 220 220 219 218 216 214 211 208 207 208 209 210 211 212 212 213 213 212 212 212 213 214 214 214 217 218 220 221 223 225 228 230 232 234 238 244 249 255 261 265 269 270 270 270 268 268 269 270 270 271 272 272 271 270 269 271 274 278 281 282 284 286 288 287 282 280 284 287 289 289 289 289 290 290 288 286 283
222 223 223 223 222 222 222 222 222 221 221 221 221 221 219 217 215 213 210 209 209 210 211 212 213 214 215 215 215 215 215 216 218 218 218 219 221 224 225 228 230 232 233 235 238 243 248 251 256 260 264 269 272 272 271 270 269 270 271 273 274 275 275 275 275 274 274 275 278 282 283 285 288 289 287 282 283 288 289 288 288 289 289 289 288 285 281 278
223 224 224 224 223 223 223 223 223 222 222 222 222 221 220 218 216 214 212 211 211 211 212 213 214 215 216 217 217 217 217 218 220 222 223 223 225 227 229 231 233 234 236 239 243 247 250 253 256 260 263 267 271 272 272 272 271 271 273 275 277 278 278 278 279 279 279 280 281 282 284 287 289 290 286 284 287 290 290 290 290 290 290 289 288 284 279 275
223 224 224 224 224 224 224 225 224 224 223 223 223 222 221 219 217 215 213 212 212 213 214 215 215 216 217 218 219 219 219 220 222 223 226 227 228 230 231 233 235 237 240 243 246 249 251 254 257 259 262 265 268 271 273 273 272 273 274 276 278 280 280 280 280 281 282 283 284 284 285 288 290 288 285 286 291 292 292 292 291 290 289 288 287 283 278 272
223 224 224 225 225 225 226 226 226 225 225 224 224 223 222 220 218 216 215 214 214 214 215 216 217 218 219 219 220 221 221 222 223 225 227 230 232 233 234 236 238 240 243 245 248 250 252 255 257 259 262 266 268 270 272 273 274 275 277 278 280 280 281 281 281 283 285 285 286 284 284 289 290 286 285 288 291 292 293 292 291 290 288 288 286 283 279 273
224 224 224 225 225 226 226 226 227 227 226 226 225 224 223 221 220 218 216 215 215 215 216 217 218 219 220 221 222 222 223 224 225 227 229 231 233 235 237 239 241 243 245 247 249 251 254 256 258 260 263 266 269 271 272 273 276 277 279 280 281 281 281 282 282 284 286 286 287 284 285 290 289 285 286 288 289 290 291 290 290 289 288 287 285 282 279 276
224 225 225 225 225 226 226 227 227 227 227 226 226 225 224 222 221 219 218 217 216 216 217 218 219 220 221 222 223 224 224 226 227 228 230 232 235 237 238 240 242 245 247 249 251 253 255 257 259 262 264 267 269 271 272 274 276 279 281 281 281 281 282 283 285 286 286 284 284 284 286 289 286 286 287 286 287 288 288 287 287 287 287 286 284 282 280 278
224 225 225 225 225 225 225 226 226 227 227 227 226 225 225 223 222 220 219 218 217 217 218 219 220 221 222 223 224 225 226 227 228 230 231 233 236 238 240 241 243 245 247 250 252 254 255 257 260 262 264 267 269 271 273 275 277 280 281 281 281 282 284 286 287 285 283 282 283 284 286 287 283 285 286 286 287 288 287 286 285 284 285 285 283 281 280 279
223 224 225 225 224 224 224 225 225 226 226 226 226 225 225 224 223 222 221 219 219 218 219 220 221 222 223 224 225 227 228 229 230 231 233 235 237 239 241 243 244 246 248 251 253 255 257 258 260 262 265 267 270 273 275 276 278 278 278 279 282 287 289 288 285 282 281 282 284 284 286 287 283 282 284 286 288 287 287 286 285 285 285 284 282 280 280 279
223 223 224 224 224 224 224 224 224 224 225 225 225 225 225 224 223 222 221 220 220 219 220 220 221 222 223 224 226 228 229 230 232 233 234 236 238 240 242 244 246 248 250 252 254 256 258 259 261 262 265 268 272 275 276 276 275 275 278 282 287 290 289 285 280 280 281 283 284 284 287 288 284 282 284 286 286 285 286 286 286 287 286 283 281 280 279 279
224 224 224 224 224 224 224 224 223 223 223 223 223 224 224 224 223 223 222 221 220 220 220 221 222 223 224 225 226 228 230 231 233 234 236 237 239 241 243 245 247 249 251 253 255 257 259 260 262 263 266 271 275 275 274 273 273 277 281 286 288 288 286 282 278 278 280 281 283 284 286 284 282 284 286 285 284 285 287 289 289 288 284 283 281 280 279 279
225 225 224 224 224 224 224 224 224 223 223 222 222 223 223 223 223 223 222 222 221 221 221 221 222 223 223 225 226 228 230 232 234 235 237 238 240 242 243 245 247 249 252 254 256 258 260 262 263 265 269 273 273 272 272 273 276 280 283 285 286 287 285 281 277 277 277 278 280 281 282 279 279 283 284 282 283 287 291 293 292 289 286 283 281 279 279 279
225 226 226 226 225 224 224 224 224 224 223 223 222 223 223 223 223 223 223 222 222 222 222 222 222 223 224 225 227 229 231 233 234 236 238 240 241 243 245 246 248 250 252 254 257 259 262 263 265 268 270 270 270 271 272 275 279 280 282 284 286 287 285 279 275 275 276 277 277 277 277 277 277 278 278 279 282 286 290 290 291 291 288 284 281 280 279 277
225 226 226 227 227 226 225 225 225 224 224 224 223 224 224 224 224 224 223 223 223 223 223 223 223 224 225 226 228 230 232 234 235 237 239 241 243 244 245 247 248 250 253 255 258 260 262 264 266 268 268 268 270 272 274 276 277 279 281 284 286 287 283 275 273 274 275 277 277 275 274 275 275 274 274 278 282 287 289 289 290 289 285 281 280 279 277 275
226 226 226 227 227 227 227 226 226 225 225 225 225 225 226 226 226 225 225 224 224 224 224 224 225 225 227 228 229 231 232 234 236 238 240 241 243 244 245 247 249 251 254 256 259 260 262 265 266 266 267 269 271 272 274 274 275 279 282 284 285 284 280 274 272 273 274 276 277 275 274 273 273 274 276 281 285 291 295 294 291 286 282 281 279 276 274 274
226 227 227 227 228 228 228 228 228 227 227 227 227 227 227 227 228 227 227 227 225 225 226 226 226 227 228 229 230 231 233 234 236 238 240 241 243 244 246 248 250 253 255 257 258 260 262 264 264 265 267 269 270 271 273 274 276 279 281 284 284 282 278 274 271 270 272 276 277 276 274 271 271 275 279 285 290 295 299 297 292 287 283 281 280 277 276 275
227 227 227 228 229 229 229 229 229 229 229 230 229 229 230 230 230 230 230 230 228 227 227 228 228 228 229 231 232 233 234 235 236 238 240 242 244 246 248 249 251 253 256 257 258 260 262 263 263 265 266 268 269 271 273 275 276 279 281 283 283 279 276 274 272 271 272 274 275 277 275 270 270 275 279 285 291 295 299 298 296 292 286 283 283 282 281 278
227 227 227 228 229 230 230 230 230 230 230 231 232 232 231 231 232 232 233 233 230 227 228 229 230 230 231 233 234 235 236 236 238 240 241 243 245 247 248 250 252 254 256 258 259 260 261 262 263 264 266 268 269 271 273 275 277 279 281 280 278 276 274 274 274 273 272 272 273 276 275 271 270 273 277 282 286 290 297 297 296 296 291 289 289 287 285 282
229 229 228 228 229 230 231 231 232 232 232 232 233 233 233 233 234 235 236 237 233 228 229 231 232 232 232 234 236 237 238 238 239 241 242 244 246 247 249 251 253 255 256 258 259 260 261 262 263 265 266 267 269 271 273 275 277 278 278 277 275 274 274 273 273 273 274 273 272 272 273 274 273 272 277 281 281 289 299 296 294 296 294 292 290 288 288 287
231 231 230 230 230 230 230 231 232 233 233 234 234 234 234 234 236 236 238 240 235 229 230 231 233 234 234 236 237 238 240 240 240 242 243 245 247 248 250 251 253 255 256 258 259 260 261 262 263 265 266 267 270 273 274 275 275 276 276 274 274 274 273 273 272 273 273 274 272 270 273 277 275 274 277 277 279 292 301 298 296 297 295 291 288 286 287 288
233 233 233 232 232 231 231 230 232 233 234 234 235 235 235 235 237 237 238 240 236 231 231 232 233 235 236 236 237 239 241 241 241 242 243 245 246 248 249 251 253 255 256 257 259 261 261 261 263 265 267 270 273 274 273 273 273 274 274 273 272 272 272 272 272 272 272 272 270 270 276 280 277 276 278 277 283 297 302 300 299 297 293 289 286 285 286 287
233 234 234 234 234 233 232 232 232 234 235 236 236 236 236 236 237 237 238 239 236 233 233 232 233 235 237 238 238 239 242 242 243 243 244 246 247 249 250 252 254 255 256 258 259 261 261 263 264 266 269 272 273 272 271 270 271 271 272 272 272 271 270 271 271 272 272 271 269 271 278 281 278 275 276 281 291 299 300 300 298 296 292 288 285 284 285 285
232 233 234 235 235 235 235 234 233 234 235 236 237 238 237 237 237 237 238 238 236 237 237 235 234 235 237 239 240 241 242 244 245 246 246 247 248 250 251 252 254 255 257 258 259 261 263 265 267 269 270 271 270 269 269 269 269 269 270 270 270 270 269 269 269 270 270 268 269 273 278 281 278 274 276 285 293 297 299 300 298 295 291 287 284 284 284 285
232 233 234 234 235 236 236 236 236 236 236 235 236 237 238 238 237 237 238 238 239 239 240 239 237 237 238 240 242 243 244 245 247 248 249 250 250 251 252 253 255 256 258 259 260 262 264 266 268 269 269 268 267 266 266 266 267 268 269 269 270 270 269 268 267 268 268 268 272 276 277 277 274 275 281 289 293 296 296 298 299 295 290 286 284 284 285 285
232 232 233 234 235 235 235 236 237 238 237 236 236 237 239 239 238 238 239 239 240 240 241 242 241 239 240 241 242 244 245 246 247 248 249 250 251 251 252 253 254 256 257 259 260 262 264 265 267 267 267 266 266 265 266 267 268 269 269 269 268 268 268 268 267 267 269 272 275 276 276 274 272 276 283 288 292 293 291 295 297 292 288 286 283 284 286 284
233 233 234 234 234 235 235 236 237 238 239 238 237 237 238 238 239 240 241 240 241 242 243 244 244 243 242 242 242 244 245 247 247 248 249 250 251 252 252 253 254 256 258 260 261 263 264 265 266 266 266 266 266 267 268 268 268 267 266 265 264 265 266 267 269 271 272 273 273 273 273 273 274 278 282 286 289 289 288 293 295 289 284 282 282 283 282 280
234 235 235 234 234 233 233 234 236 238 239 239 238 237 236 237 239 240 241 241 243 244 245 246 247 247 246 245 244 245 246 247 248 249 250 251 252 253 254 255 256 258 259 261 262 263 264 264 264 265 264 264 266 267 267 266 264 263 263 263 263 265 267 269 271 272 272 271 271 270 270 272 275 279 282 284 286 286 287 291 292 287 281 279 281 283 280 278
235 235 235 235 234 232 231 233 235 236 237 237 237 236 236 237 239 241 242 242 243 244 245 246 247 248 248 247 247 247 247 248 249 250 251 252 253 254 255 257 258 259 260 261 262 263 263 263 263 262 262 262 263 264 264 263 263 263 264 264 265 267 268 269 269 269 270 270 270 270 270 273 276 279 281 283 285 286 288 290 287 282 279 279 281 281 279 277
237 236 235 234 234 234 233 233 235 237 238 238 236 235 236 238 239 241 243 243 243 245 246 247 248 249 250 250 249 248 249 249 250 251 252 253 254 254 255 257 258 260 260 261 262 262 261 261 260 260 260 260 260 261 262 262 263 264 264 265 267 269 268 267 267 267 269 270 270 271 273 275 277 277 278 281 283 285 289 289 282 277 277 278 279 279 278 276
237 237 236 234 232 233 236 236 236 239 241 241 241 239 237 237 238 239 242 243 243 244 245 247 249 250 251 252 252 251 250 250 250 251 252 253 254 254 255 256 257 259 260 260 260 260 259 259 257 257 258 259 260 261 261 262 263 263 264 265 267 267 266 266 267 268 269 270 271 272 274 276 277 278 279 280 281 285 288 285 276 273 275 275 275 275 274 273
235 235 235 233 231 232 235 236 238 240 241 243 246 245 240 237 238 241 243 243 243 243 243 244 246 248 249 250 251 252 252 251 250 250 250 252 252 252 253 255 256 257 258 258 258 257 257 257 256 255 257 258 259 260 261 262 263 264 265 265 265 266 266 267 267 268 269 270 272 273 274 276 278 280 282 281 281 285 286 280 274 274 274 273 273 272 271 270
234 234 233 233 232 232 233 235 237 239 240 241 245 245 242 238 237 240 242 241 242 243 243 244 245 247 249 249 250 252 253 253 251 250 249 250 250 249 250 252 253 254 254 255 256 256 256 256 255 254 255 257 257 258 260 262 264 264 265 265 265 266 267 267 267 268 269 270 271 274 276 279 281 282 283 281 281 282 279 275 277 276 273 270 267 266 266 266
234 235 234 232 232 233 233 236 238 239 239 240 242 243 242 239 237 238 240 241 242 243 243 244 246 247 248 249 250 251 253 254 254 253 252 251 251 250 249 250 251 251 253 254 255 255 255 255 255 255 255 256 257 259 261 263 263 263 263 264 265 266 267 267 267 266 266 267 271 276 279 280 281 282 281 278 277 278 275 275 276 274 270 266 262 261 262 262
235 235 234 232 233 233 234 236 239 240 241 241 242 242 241 240 239 240 242 242 242 243 244 243 244 245 247 248 249 250 252 253 254 255 256 255 254 254 253 253 253 252 253 254 255 255 256 257 257 256 256 257 258 260 261 261 261 261 261 263 264 265 264 263 264 266 267 270 274 277 278 277 277 278 277 275 277 280 278 275 272 270 267 264 260 258 259 260
235 235 234 233 233 234 235 237 238 240 242 241 242 244 242 240 240 242 244 243 243 244 244 243 243 244 245 246 248 249 250 252 253 254 256 256 256 256 256 256 255 253 252 253 254 255 256 256 256 255 255 255 256 257 258 260 261 262 262 262 261 261 261 263 266 270 272 272 273 274 274 274 275 275 275 276 278 281 280 276 271 270 268 265 262 260 259 260
235 235 234 233 234 234 236 238 238 239 241 241 242 244 243 241 241 243 243 243 244 245 245 245 244 244 245 246 248 249 250 251 252 253 255 257 257 256 256 255 254 252 251 252 252 253 254 255 256 256 255 255 255 257 258 260 260 261 261 261 261 262 264 266 268 270 269 269 270 272 273 274 273 273 274 275 276 278 280 277 274 272 269 266 266 265 263 261
236 235 234 234 233 233 235 237 238 239 241 241 241 243 243 242 242 242 242 243 243 244 245 246 246 246 246 248 248 249 250 251 252 253 254 256 257 257 256 255 253 252 251 252 253 253 254 255 256 256 255 254 254 255 255 257 259 261 263 265 266 267 267 266 267 268 267 268 268 269 270 272 272 274 275 275 275 277 279 278 275 274 272 271 270 268 265 262
236 235 234 233 234 234 235 236 237 239 240 240 240 242 243 244 244 244 243 244 244 244 245 246 246 247 248 248 249 250 250 250 251 252 252 254 255 256 257 256 253 252 252 253 253 253 253 253 253 253 253 252 252 254 257 261 265 267 267 267 266 266 266 267 266 264 265 265 264 265 269 272 272 272 273 273 276 280 280 277 275 276 276 275 271 268 265 263
237 236 234 233 234 235 235 235 236 237 238 238 239 240 241 242 243 243 243 244 244 245 246 246 244 245 246 248 248 249 249 249 250 250 251 252 254 255 256 256 254 253 253 253 253 253 252 253 252 253 254 255 256 259 263 265 267 266 265 264 264 264 264 263 261 261 264 265 264 266 270 271 270 271 272 274 276 278 278 278 279 279 277 274 272 269 267 265
236 236 235 234 235 235 235 235 235 235 236 237 237 238 239 240 241 242 243 243 244 245 246 246 245 244 246 247 248 248 247 247 248 249 249 251 253 254 255 255 254 254 254 254 254 254 254 254 255 256 258 258 259 260 262 263 263 263 263 262 262 261 260 259 259 262 265 264 264 268 270 268 268 271 272 272 273 274 277 280 281 279 276 273 272 271 269 268
236 236 235 235 235 235 236 235 236 236 236 237 238 238 239 240 241 243 244 244 244 245 246 246 245 245 247 248 249 248 246 245 246 246 248 249 251 252 253 253 253 253 254 254 254 255 256 257 258 258 259 259 258 258 259 260 261 261 260 260 259 258 257 258 259 262 263 263 266 269 267 265 268 270 269 269 271 274 278 279 278 276 274 273 272 272 271 272
236 236 235 235 235 236 236 236 237 237 236 236 238 240 241 242 242 244 246 245 244 244 246 247 246 247 248 249 249 247 245 245 246 247 248 250 250 250 252 253 254 254 255 255 256 257 258 258 258 259 259 259 259 259 260 260 260 258 258 258 257 255 255 257 259 260 261 263 265 265 264 266 270 270 268 270 273 276 275 274 273 273 273 275 275 274 273 275
236 235 235 235 236 236 235 235 235 236 234 233 235 238 239 240 241 242 244 244 245 245 245 247 247 247 248 247 247 246 244 244 245 247 249 251 250 250 252 253 255 256 257 257 257 258 259 259 259 261 261 260 260 262 261 260 257 255 254 254 254 254 255 256 257 258 259 262 265 265 265 268 270 270 272 275 275 273 271 270 271 272 274 275 275 276 277 278
236 235 235 235 235 235 234 234 234 234 233 231 231 232 234 235 236 238 239 240 242 243 243 244 244 244 244 245 245 244 240 240 243 247 249 252 252 252 253 254 254 255 257 258 258 258 259 260 261 262 261 261 261 261 259 257 254 251 249 251 254 256 256 257 258 259 259 262 265 264 265 269 272 271 271 271 271 271 272 273 273 273 273 274 275 277 278 278
235 235 234 234 235 235 234 233 233 233 232 231 230 230 232 232 231 232 234 233 233 236 238 239 239 239 241 243 244 241 238 240 245 248 249 252 253 253 254 254 253 253 255 256 256 256 257 259 260 260 260 260 258 255 254 253 251 249 250 254 257 257 256 256 256 257 258 261 262 262 265 268 269 267 267 268 271 273 274 273 273 272 273 274 276 276 275 274
Height
5820 5822 5824 5826 5827 5829 5831 5833 5834 5836 5838 5840 5841 5843 5844 5846 5847 5848 5850 5851 5853 5854 5856 5857 5858 5860 5861 5862 5863 5864 5865 5867 5868 5868 5869 5870 5871 5872 5872 5873 5874 5874 5875 5875 5876 5876 5877 5877 5878 5879 5879 5879 5880 5880 5880 5880 5880 5880 5881 5881 5881 5881 5881 5881 5881 5881 5881 5881 5880 5880 5880 5880 5880 5880 5879 5878 5878 5878 5878 5878 5878 5877 5877 5876 5876 5875 5874 5874
5818 5820 5822 5823 5825 5827 5829 5830 5832 5834 5836 5837 5839 5841 5842 5843 5845 5846 5848 5850 5851 5853 5854 5856 5857 5858 5860 5861 5862 5863 5864 5866 5866 5867 5868 5869 5870 5871 5871 5872 5873 5873 5874 5875 5875 5876 5876 5877 5877 5878 5878 5878 5879 5879 5879 5879 5879 5879 5879 5879 5880 5880 5880 5880 5880 5880 5880 5880 5879 5879 5879 5879 5879 5879 5878 5877 5877 5877 5877 5877 5876 5876 5875 5875 5874 5874 5873 5873
5815 5817 5819 5821 5823 5824 5826 5828 5829 5831 5833 5835 5836 5838 5840 5841 5843 5845 5846 5848 5849 5851 5853 5854 5855 5857 5858 5860 5861 5862 5863 5865 5865 5866 5867 5868 5869 5870 5870 5871 5872 5873 5873 5874 5874 5875 5875 5876 5876 5877 5877 5877 5878 5878 5878 5878 5878 5879 5878 5878 5878 5878 5878 5878 5879 5879 5879 5878 5878 5878 5877 5877 5878 5878 5877 5876 5876 5875 5875 5875 5875 5874 5874 5873 5873 5873 5872 5871
5812 5814 5816 5818 5820 5822 5823 5825 5827 5828 5830 5832 5834 5836 5837 5839 5841 5843 5844 5846 5848 5849 5851 5852 5854 5855 5857 5858 5859 5861 5862 5863 5864 5865 5866 5867 5868 5869 5869 5870 5871 5872 5872 5873 5873 5874 5874 5875 5875 5875 5876 5876 5876 5877 5877 5877 5877 5877 5877 5877 5876 5876 5877 5877 5877 5877 5877 5877 5877 5877 5876 5876 5876 5876 5876 5876 5875 5874 5873 5873 5873 5873 5872 5872 5871 5871 5871 5870
5808 5811 5813 5815 5817 5819 5820 5822 5824 5826 5827 5829 5831 5833 5835 5837 5839 5841 5842 5844 5846 5847 5849 5850 5852 5854 5855 5857 5858 5859 5861 5862 5863 5864 5864 5865 5866 5867 5868 5869 5870 5870 5871 5872 5872 5873 5873 5873 5874 5874 5875 5875 5875 5875 5876 5876 5876 5876 5876 5875 5875 5875 5875 5876 5875 5875 5875 5875 5876 5875 5875 5875 5875 5875 5875 5874 5873 5872 5872 5871 5870 5870 5870 5870 5869 5868 5868 5868
5804 5807 5809 5811 5813 5815 5817 5819 5821 5823 5825 5826 5828 5830 5832 5834 5836 5838 5840 5842 5843 5845 5847 5848 5850 5852 5853 5855 5856 5858 5859 5860 5861 5862 5863 5864 5865 5866 5867 5867 5868 5869 5870 5870 5871 5871 5872 5872 5873 5873 5873 5874 5874 5874 5874 5874 5874 5874 5874 5874 5874 5874 5874 5874 5874 5874 5874 5874 5874 5874 5874 5874 5874 5873 5873 5873 5872 5871 5871 5869 5868 5868 5868 5868 5867 5866 5866 5865
5800 5803 5805 5807 5809 5812 5814 5816 5818 5820 5822 5823 5825 5827 5829 5832 5834 5835 5837 5839 5841 5843 5844 5846 5848 5849 5851 5853 5854 5855 5857 5858 5859 5860 5861 5862 5863 5864 5865 5866 5867 5867 5868 5869 5869 5870 5870 5871 5872 5872 5872 5872 5872 5872 5873 5873 5872 5872 5872 5872 5872 5872 5873 5873 5873 5872 5872 5872 5872 5872 5872 5872 5872 5872 5871 5871 5870 5870 5869 5868 5867 5866 5866 5866 5865 5864 5864 5863
5797 5799 5801 5803 5806 5808 5810 5812 5814 5816 5818 5820 5822 5824 5827 5829 5831 5833 5835 5836 5838 5840 5842 5843 5845 5847 5849 5850 5852 5853 5854 5856 5857 5858 5859 5860 5861 5862 5863 5864 5865 5866 5866 5867 5868 5868 5869 5870 5870 5870 5870 5870 5870 5871 5871 5871 5871 5871 5871 5871 5871 5871 5871 5871 5871 5871 5871 5871 5870 5870 5870 5871 5871 5871 5870 5868 5867 5868 5868 5867 5866 5864 5864 5864 5863 5863 5862 5861
5793 5795 5797 5799 5802 5804 5806 5808 5810 5812 5814 5817 5819 5821 5823 5826 5828 5830 5832 5833 5835 5837 5839 5840 5842 5844 5846 5847 5849 5851 5852 5853 5855 5856 5857 5858 5859 5860 5861 5862 5863 5864 5864 5865 5866 5867 5867 5868 5868 5869 5869 5869 5869 5869 5869 5869 5869 5869 5869 5869 5869 5869 5869 5869 5868 5868 5869 5869 5869 5868 5868 5868 5869 5869 5868 5866 5865 5866 5865 5865 5864 5862 5862 5861 5861 5861 5860 5860
5789 5791 5794 5796 5798 5800 5802 5804 5806 5808 5811 5813 5815 5817 5820 5822 5824 5826 5829 5831 5832 5834 5836 5837 5839 5841 5843 5844 5846 5848 5849 5851 5852 5853 5855 5856 5857 5858 5859 5860 5861 5862 5862 5863 5864 5865 5865 5866 5867 5867 5867 5867 5867 5867 5867 5868 5868 5868 5868 5868 5867 5867 5867 5867 5866 5866 5866 5867 5867 5866 5865 5866 5866 5866 5865 5863 5863 5863 5863 5862 5861 5860 5859 5859 5859 5859 5858 5858
5785 5787 5790 5792 5794 5796 5798 5801 5803 5805 5807 5809 5811 5814 5816 5818 5821 5823 5825 5827 5829 5831 5833 5834 5836 5838 5839 5842 5843 5845 5847 5849 5850 5851 5852 5853 5855 5856 5857 5858 5859 5859 5860 5861 5862 5863 5863 5864 5865 5865 5865 5866 5865 5865 5865 5866 5866 5866 5866 5866 5866 5865 5865 5864 5864 5864 5864 5864 5864 5863 5863 5863 5863 5863 5862 5860 5860 5860 5860 5859 5859 5858 5857 5856 5856 5856 5856 5856
5780 5783 5786 5788 5790 5792 5795 5797 5799 5801 5803 5805 5808 5810 5812 5815 5817 5819 5822 5824 5826 5828 5830 5832 5833 5835 5837 5839 5840 5842 5844 5846 5847 5848 5850 5851 5852 5853 5854 5855 5856 5857 5858 5859 5860 5860 5861 5862 5862 5863 5863 5864 5864 5864 5864 5863 5864 5864 5864 5864 5863 5863 5862 5862 5862 5862 5862 5861 5861 5860 5860 5861 5860 5859 5859 5858 5858 5857 5857 5857 5856 5856 5855 5854 5854 5854 5853 5853
5776 5779 5781 5784 5786 5788 5791 5793 5795 5797 5799 5802 5804 5806 5809 5811 5813 5816 5818 5820 5822 5824 5827 5829 5830 5832 5834 5836 5838 5840 5841 5843 5844 5846 5847 5848 5850 5851 5852 5853 5854 5855 5856 5856 5857 5858 5858 5859 5860 5860 5861 5861 5861 5862 5862 5862 5862 5862 5862 5861 5861 5861 5860 5860 5860 5860 5859 5858 5858 5856 5857 5859 5857 5855 5856 5856 5855 5855 5854 5854 5854 5853 5853 5853 5852 5851 5851 5850
5772 5774 5777 5779 5781 5784 5786 5789 5791 5793 5796 5798 5800 5803 5805 5807 5809 5812 5814 5816 5818 5821 5823 5825 5827 5829 5831 5833 5835 5837 5838 5840 5842 5843 5844 5846 5847 5848 5849 5850 5851 5852 5853 5854 5855 5855 5856 5857 5857 5858 5859 5859 5859 5859 5859 5860 5859 5859 5859 5859 5858 5858 5858 5858 5857 5857 5857 5855 5855 5853 5854 5857 5855 5852 5853 5853 5853 5852 5852 5851 5851 5851 5850 5850 5850 5849 5849 5848
5768 5771 5773 5775 5777 5780 5782 5784 5787 5789 5791 5794 5796 5799 5801 5803 5805 5808 5810 5812 5814 5817 5819 5822 5824 5826 5828 5830 5832 5834 5836 5837 5838 5840 5841 5843 5844 5845 5846 5848 5849 5850 5851 5851 5852 5853 5853 5854 5855 5855 5856 5856 5856 5857 5857 5857 5857 5857 5856 5856 5855 5855 5855 5856 5855 5855 5854 5852 5852 5851 5851 5854 5853 5850 5849 5850 5850 5850 5849 5849 5848 5848 5848 5848 5847 5847 5846 5846
5764 5766 5769 5771 5774 5776 5778 5780 5783 5785 5787 5790 5792 5794 5797 5799 5801 5804 5806 5808 5810 5813 5816 5818 5820 5823 5825 5827 5829 5831 5832 5834 5835 5837 5838 5840 5841 5842 5843 5845 5846 5847 5848 5848 5849 5850 5851 5852 5852 5853 5853 5853 5854 5854 5854 5854 5855 5854 5853 5852 5853 5853 5853 5853 5852 5851 5851 5849 5849 5848 5848 5851 5851 5847 5846 5847 5847 5847 5846 5846 5845 5845 5845 5845 5844 5844 5843 5843
5760 5762 5765 5767 5770 5772 5774 5776 5778 5780 5783 5785 5788 5790 5792 5794 5797 5799 5801 5804 5806 5809 5811 5813 5816 5818 5821 5824 5826 5828 5829 5830 5832 5834 5835 5837 5838 5839 5840 5841 5842 5844 5844 5845 5846 5847 5848 5848 5849 5850 5850 5851 5851 5851 5851 5851 5851 5850 5850 5850 5850 5850 5850 5850 5849 5848 5847 5846 5846 5845 5846 5847 5847 5845 5844 5844 5843 5843 5844 5843 5843 5843 5843 5842 5842 5841 5840 5840
5756 5758 5761 5763 5766 5769 5770 5772 5774 5776 5779 5781 5783 5785 5788 5790 5793 5795 5797 5800 5802 5805 5807 5809 5812 5814 5818 5821 5822 5823 5825 5827 5828 5830 5831 5833 5834 5836 5837 5838 5839 5840 5841 5842 5843 5844 5844 5845 5846 5847 5848 5848 5848 5848 5848 5847 5847 5847 5848 5848 5848 5848 5847 5847 5847 5845 5844 5843 5843 5842 5843 5845 5844 5842 5842 5841 5840 5840 5841 5841 5841 5841 5840 5839 5838 5838 5837 5837
5752 5754 5757 5759 5762 5764 5767 5769 5771 5773 5775 5777 5779 5781 5783 5786 5788 5790 5793 5796 5798 5801 5803 5806 5808 5811 5814 5816 5817 5819 5821 5823 5825 5826 5828 5829 5831 5832 5833 5835 5836 5837 5838 5839 5839 5840 5841 5842 5843 5844 5845 5845 5845 5844 5844 5844 5844 5844 5845 5845 5845 5845 5845 5845 5843 5842 5841 5840 5840 5840 5839 5841 5842 5841 5839 5837 5837 5838 5839 5839 5838 5838 5837 5836 5835 5834 5834 5834
5748 5750 5753 5755 5758 5761 5763 5765 5767 5769 5771 5773 5776 5777 5779 5782 5784 5786 5789 5792 5795 5797 5799 5801 5804 5806 5810 5811 5813 5815 5817 5819 5821 5822 5824 5826 5827 5828 5830 5831 5832 5833 5834 5835 5836 5837 5838 5839 5840 5842 5842 5841 5840 5840 5840 5841 5842 5841 5841 5841 5842 5842 5842 5842 5840 5838 5838 5837 5837 5837 5836 5837 5839 5839 5836 5834 5835 5837 5838 5837 5836 5835 5834 5833 5831 5831 5831 5830
5743 5746 5749 5751 5754 5757 5759 5761 5763 5766 5768 5770 5772 5774 5776 5778 5779 5781 5784 5787 5789 5791 5794 5796 5799 5802 5805 5807 5809 5811 5813 5815 5817 5818 5820 5822 5823 5824 5825 5827 5828 5829 5831 5832 5833 5834 5835 5836 5838 5838 5837 5837 5837 5837 5838 5838 5838 5838 5838 5838 5838 5838 5839 5838 5836 5835 5834 5832 5834 5834 5832 5833 5835 5835 5834 5833 5833 5835 5835 5834 5834 5833 5830 5829 5828 5827 5826 5825
5738 5741 5744 5746 5750 5752 5755 5757 5759 5762 5764 5766 5768 5770 5771 5773 5774 5777 5779 5781 5783 5786 5789 5791 5795 5798 5801 5803 5805 5807 5809 5811 5813 5814 5816 5818 5819 5820 5821 5822 5824 5825 5827 5828 5829 5830 5831 5833 5834 5833 5833 5833 5833 5834 5834 5835 5835 5835 5835 5834 5835 5835 5835 5835 5833 5832 5830 5828 5830 5830 5828 5829 5831 5831 5832 5831 5831 5831 5831 5830 5830 5828 5826 5825 5824 5823 5822 5821
5733 5736 5739 5742 5745 5747 5750 5753 5755 5759 5761 5762 5764 5765 5766 5768 5770 5772 5773 5775 5778 5781 5784 5787 5791 5794 5796 5798 5801 5803 5805 5807 5808 5810 5811 5813 5814 5815 5817 5819 5820 5821 5823 5824 5825 5826 5828 5830 5830 5829 5829 5830 5829 5830 5830 5831 5831 5831 5831 5831 5831 5831 5830 5830 5829 5828 5826 5825 5825 5825 5823 5824 5827 5827 5829 5829 5828 5828 5827 5825 5824 5823 5822 5821 5820 5819 5818 5817
5728 5731 5734 5737 5740 5742 5746 5748 5752 5756 5757 5758 5760 5760 5761 5764 5766 5767 5768 5769 5772 5776 5780 5783 5785 5789 5792 5794 5796 5798 5800 5802 5804 5805 5806 5808 5810 5811 5814 5815 5816 5817 5819 5820 5821 5822 5825 5825 5825 5825 5826 5826 5826 5827 5827 5827 5827 5827 5828 5827 5827 5827 5826 5825 5824 5823 5823 5822 5821 5820 5817 5818 5823 5824 5825 5827 5825 5824 5823 5821 5819 5818 5817 5817 5816 5815 5814 5813
5723 5725 5728 5731 5734 5737 5740 5744 5750 5752 5753 5754 5754 5754 5756 5759 5761 5762 5763 5763 5766 5772 5776 5778 5781 5785 5788 5789 5791 5794 5795 5797 5800 5801 5803 5805 5806 5807 5809 5810 5811 5814 5815 5815 5816 5818 5821 5821 5821 5822 5822 5822 5822 5823 5823 5822 5823 5824 5824 5823 5823 5823 5821 5820 5820 5819 5818 5818 5818 5817 5812 5811 5818 5821 5822 5823 5822 5822 5821 5818 5816 5814 5813 5812 5812 5811 5810 5809
5717 5720 5723 5725 5728 5731 5735 5741 5746 5746 5747 5748 5746 5748 5752 5755 5756 5757 5758 5756 5759 5768 5772 5775 5777 5780 5783 5784 5788 5790 5789 5793 5797 5797 5799 5800 5801 5803 5804 5806 5808 5810 5811 5811 5811 5814 5817 5817 5816 5818 5818 5818 5818 5819 5819 5818 5819 5819 5819 5819 5818 5818 5817 5816 5816 5814 5813 5813 5813 5813 5809 5806 5810 5816 5819 5818 5818 5819 5818 5814 5813 5811 5810 5809 5808 5807 5806 5805
5711 5714 5717 5719 5723 5725 5730 5737 5738 5740 5742 5740 5740 5744 5747 5749 5750 5752 5753 5749 5753 5764 5768 5770 5773 5775 5779 5781 5783 5784 5783 5789 5793 5792 5794 5796 5796 5798 5800 5802 5804 5805 5806 5805 5807 5810 5812 5812 5812 5813 5813 5813 5814 5815 5815 5814 5814 5814 5815 5815 5814 5813 5813 5812 5811 5810 5809 5809 5807 5807 5809 5806 5804 5809 5813 5813 5814 5816 5814 5810 5809 5808 5807 5806 5804 5803 5802 5801
5705 5708 5711 5714 5717 5720 5725 5729 5732 5735 5734 5733 5736 5739 5741 5743 5744 5745 5745 5742 5749 5760 5763 5765 5769 5770 5773 5775 5777 5777 5778 5784 5786 5787 5790 5790 5791 5793 5795 5797 5799 5800 5801 5801 5803 5806 5806 5806 5808 5809 5809 5809 5811 5811 5810 5810 5809 5809 5810 5810 5810 5809 5808 5808 5807 5806 5805 5804 5801 5803 5807 5805 5801 5804 5806 5806 5810 5812 5808 5806 5805 5804 5803 5801 5800 5799 5798 5798
5699 5702 5705 5708 5710 5714 5719 5724 5728 5728 5726 5728 5731 5732 5734 5736 5736 5737 5735 5736 5747 5755 5756 5760 5764 5765 5766 5768 5771 5773 5774 5777 5780 5782 5785 5785 5786 5789 5791 5793 5794 5794 5796 5797 5799 5801 5800 5801 5803 5804 5805 5806 5807 5806 5805 5805 5805 5805 5805 5805 5805 5805 5804 5804 5802 5801 5801 5798 5797 5801 5804 5802 5797 5797 5799 5802 5805 5806 5803 5802 5801 5799 5798 5797 5795 5794 5794 5793
5693 5697 5700 5701 5704 5709 5714 5719 5722 5719 5720 5723 5723 5725 5728 5727 5729 5729 5725 5734 5747 5750 5750 5754 5758 5760 5761 5763 5765 5768 5769 5772 5775 5777 5779 5780 5783 5784 5786 5788 5789 5789 5791 5792 5794 5795 5795 5796 5798 5799 5802 5802 5801 5801 5800 5800 5800 5801 5801 5800 5800 5800 5799 5799 5797 5797 5796 5793 5795 5799 5801 5799 5792 5788 5794 5800 5801 5800 5798 5797 5796 5795 5794 5792 5791 5790 5790 5789
5687 5690 5692 5694 5699 5704 5708 5714 5715 5712 5713 5716 5716 5718 5718 5719 5721 5717 5719 5736 5746 5743 5743 5747 5752 5756 5758 5759 5760 5762 5765 5767 5770 5771 5773 5776 5777 5779 5782 5783 5784 5785 5785 5788 5789 5790 5791 5792 5793 5794 5796 5797 5796 5795 5795 5796 5796 5797 5797 5797 5796 5794 5794 5793 5793 5793 5791 5790 5794 5795 5795 5794 5786 5783 5791 5797 5796 5795 5793 5791 5790 5789 5788 5788 5787 5787 5786 5785
5680 5683 5686 5689 5693 5697 5702 5707 5707 5704 5705 5708 5710 5712 5712 5710 5708 5707 5721 5738 5738 5734 5737 5739 5746 5751 5752 5753 5754 5757 5759 5761 5764 5765 5766 5769 5770 5773 5777 5778 5780 5780 5780 5783 5784 5784 5786 5787 5788 5788 5790 5790 5790 5791 5791 5791 5792 5793 5793 5792 5791 5789 5789 5788 5788 5788 5788 5789 5790 5790 5789 5785 5781 5782 5788 5792 5793 5791 5788 5787 5786 5784 5782 5783 5783 5783 5783 5781
5673 5677 5679 5682 5687 5691 5696 5699 5699 5697 5698 5700 5703 5705 5703 5697 5696 5707 5724 5731 5727 5729 5734 5735 5739 5743 5743 5746 5749 5751 5753 5754 5757 5759 5760 5762 5763 5767 5770 5772 5774 5774 5775 5778 5779 5779 5780 5782 5783 5783 5784 5785 5785 5786 5787 5787 5788 5787 5787 5787 5785 5785 5783 5782 5784 5784 5785 5786 5785 5784 5782 5777 5776 5781 5785 5788 5790 5787 5784 5782 5780 5779 5778 5777 5778 5779 5778 5777
5667 5670 5672 5676 5680 5684 5688 5691 5691 5692 5692 5693 5694 5694 5689 5685 5694 5710 5718 5721 5723 5727 5730 5730 5731 5732 5734 5740 5744 5746 5748 5749 5751 5753 5754 5755 5757 5761 5764 5766 5769 5770 5772 5773 5773 5773 5774 5775 5778 5779 5779 5780 5780 5781 5782 5781 5781 5780 5781 5780 5780 5780 5779 5779 5781 5780 5779 5779 5778 5778 5775 5771 5774 5778 5779 5782 5784 5783 5781 5778 5775 5773 5773 5773 5773 5774 5774 5773
5658 5661 5664 5667 5671 5676 5680 5683 5684 5684 5683 5684 5684 5680 5676 5680 5695 5707 5710 5714 5718 5719 5722 5722 5720 5722 5726 5731 5736 5739 5741 5743 5746 5747 5747 5749 5752 5756 5759 5761 5763 5765 5766 5766 5767 5768 5767 5770 5774 5774 5774 5775 5775 5775 5775 5774 5774 5774 5775 5774 5774 5777 5777 5776 5776 5774 5772 5772 5770 5770 5769 5768 5771 5773 5774 5776 5777 5777 5777 5775 5772 5770 5768 5768 5768 5769 5769 5769
5649 5652 5655 5658 5665 5672 5674 5675 5677 5675 5673 5673 5671 5666 5668 5681 5696 5702 5704 5709 5711 5712 5716 5715 5712 5714 5718 5722 5728 5732 5734 5737 5739 5739 5741 5743 5746 5750 5754 5756 5758 5759 5760 5761 5761 5762 5762 5764 5768 5767 5767 5768 5768 5768 5768 5768 5768 5769 5769 5769 5771 5773 5772 5770 5769 5768 5768 5765 5764 5764 5763 5764 5767 5767 5768 5771 5771 5771 5772 5770 5769 5767 5765 5764 5764 5764 5764 5764
5641 5646 5648 5652 5661 5666 5665 5666 5668 5666 5664 5662 5657 5658 5668 5682 5692 5697 5699 5703 5704 5705 5708 5707 5705 5708 5712 5715 5719 5723 5726 5729 5731 5733 5735 5737 5739 5744 5749 5751 5752 5753 5755 5756 5754 5755 5756 5757 5760 5761 5760 5761 5762 5761 5761 5762 5762 5762 5763 5765 5766 5765 5764 5763 5763 5763 5762 5760 5759 5759 5758 5759 5760 5760 5763 5767 5766 5766 5767 5766 5764 5763 5762 5761 5760 5760 5760 5760
5635 5637 5638 5646 5655 5657 5658 5659 5659 5658 5657 5652 5647 5653 5665 5675 5686 5693 5694 5694 5695 5696 5698 5698 5699 5701 5705 5707 5710 5714 5716 5719 5723 5726 5728 5730 5732 5739 5744 5744 5747 5749 5750 5749 5747 5748 5750 5750 5752 5754 5753 5754 5755 5754 5754 5756 5756 5756 5758 5760 5759 5758 5758 5758 5757 5757 5757 5754 5753 5753 5753 5754 5754 5755 5758 5761 5760 5761 5762 5761 5760 5760 5759 5757 5756 5756 5756 5756
5627 5625 5629 5642 5648 5648 5650 5651 5650 5649 5646 5640 5638 5647 5659 5669 5681 5685 5682 5683 5686 5687 5689 5692 5695 5696 5697 5700 5704 5706 5707 5710 5714 5717 5720 5723 5726 5733 5737 5738 5741 5743 5742 5741 5740 5741 5744 5742 5744 5747 5747 5746 5747 5747 5749 5751 5751 5751 5752 5753 5752 5751 5752 5752 5752 5752 5752 5749 5748 5748 5748 5749 5750 5751 5753 5753 5754 5756 5757 5756 5756 5755 5755 5754 5753 5752 5752 5752
5617 5615 5623 5637 5639 5640 5644 5642 5638 5635 5631 5630 5633 5643 5654 5663 5673 5673 5670 5675 5679 5679 5683 5689 5691 5689 5690 5694 5697 5699 5700 5702 5705 5708 5711 5716 5720 5726 5730 5731 5734 5736 5735 5733 5732 5735 5736 5735 5737 5740 5740 5739 5740 5743 5745 5746 5747 5746 5745 5745 5745 5745 5746 5746 5746 5746 5746 5745 5745 5745 5744 5744 5745 5745 5745 5745 5748 5752 5753 5752 5752 5751 5750 5749 5749 5748 5748 5748
5609 5607 5617 5629 5629 5631 5634 5628 5623 5622 5622 5625 5630 5640 5650 5657 5661 5661 5661 5669 5671 5670 5675 5681 5683 5682 5684 5687 5689 5692 5694 5694 5697 5699 5702 5708 5714 5719 5723 5726 5728 5729 5727 5725 5727 5729 5730 5729 5731 5732 5733 5734 5736 5738 5739 5738 5739 5738 5738 5739 5739 5739 5739 5738 5738 5739 5741 5742 5744 5742 5739 5739 5741 5740 5738 5738 5742 5748 5748 5747 5747 5746 5746 5745 5745 5745 5745 5745
5598 5598 5610 5620 5618 5621 5621 5614 5614 5617 5616 5621 5630 5638 5644 5648 5650 5650 5654 5660 5661 5662 5667 5670 5673 5675 5676 5680 5682 5683 5684 5685 5688 5690 5694 5700 5706 5712 5717 5719 5720 5721 5720 5720 5722 5724 5722 5721 5722 5723 5725 5728 5728 5729 5730 5730 5731 5732 5731 5732 5732 5731 5731 5732 5733 5737 5738 5737 5739 5737 5733 5735 5737 5736 5734 5734 5737 5742 5743 5742 5742 5741 5742 5742 5741 5742 5742 5742
5588 5594 5604 5608 5608 5613 5610 5604 5607 5609 5609 5620 5630 5631 5633 5639 5641 5642 5646 5650 5652 5657 5660 5662 5666 5668 5670 5675 5676 5675 5676 5678 5679 5683 5688 5692 5697 5704 5709 5709 5710 5712 5712 5713 5716 5717 5713 5712 5714 5716 5718 5721 5720 5722 5723 5724 5723 5722 5722 5724 5725 5727 5729 5729 5730 5732 5730 5730 5732 5730 5727 5730 5732 5731 5730 5731 5733 5736 5737 5737 5737 5736 5737 5739 5739 5739 5739 5738
5583 5588 5594 5596 5598 5602 5598 5595 5600 5603 5607 5618 5622 5621 5625 5630 5632 5634 5638 5642 5645 5650 5652 5654 5659 5662 5664 5667 5667 5667 5670 5670 5671 5676 5682 5683 5688 5695 5698 5699 5701 5703 5704 5707 5709 5709 5705 5705 5708 5709 5709 5712 5712 5712 5714 5714 5714 5715 5718 5721 5722 5725 5725 5723 5724 5724 5722 5724 5726 5722 5721 5725 5727 5726 5726 5725 5726 5730 5731 5731 5731 5731 5732 5734 5735 5735 5734 5734
5575 5577 5581 5585 5587 5588 5587 5591 5597 5598 5603 5610 5611 5613 5619 5621 5623 5628 5633 5635 5638 5640 5643 5647 5652 5654 5656 5657 5659 5660 5662 5664 5667 5670 5673 5676 5681 5685 5686 5688 5692 5694 5697 5700 5700 5699 5697 5697 5699 5699 5699 5701 5703 5704 5708 5711 5711 5713 5715 5717 5717 5717 5716 5715 5716 5714 5713 5717 5717 5713 5716 5720 5722 5723 5721 5720 5720 5724 5725 5725 5725 5726 5727 5728 5729 5729 5729 5729
5562 5564 5570 5575 5576 5576 5579 5586 5590 5590 5594 5600 5601 5605 5609 5612 5618 5624 5625 5625 5628 5633 5636 5640 5644 5645 5645 5647 5650 5652 5655 5659 5661 5662 5664 5668 5673 5676 5677 5679 5682 5686 5689 5690 5690 5689 5687 5686 5689 5690 5691 5695 5700 5703 5705 5706 5705 5705 5708 5709 5708 5709 5708 5707 5705 5704 5707 5709 5707 5709 5713 5715 5717 5718 5716 5715 5716 5717 5719 5719 5719 5721 5721 5721 5722 5722 5723 5723
5551 5553 5561 5567 5568 5568 5571 5577 5580 5581 5587 5591 5591 5594 5600 5605 5612 5615 5613 5615 5621 5626 5628 5630 5632 5634 5635 5640 5643 5645 5648 5652 5651 5652 5657 5662 5665 5667 5668 5670 5673 5676 5678 5680 5679 5679 5677 5676 5681 5684 5685 5691 5697 5698 5696 5696 5696 5698 5700 5701 5701 5701 5700 5697 5696 5699 5703 5699 5699 5707 5709 5706 5711 5714 5710 5710 5711 5712 5713 5714 5714 5714 5714 5714 5715 5716 5716 5717
5542 5545 5553 5559 5558 5558 5562 5568 5573 5576 5581 5583 5582 5586 5592 5596 5601 5603 5604 5611 5616 5617 5617 5617 5620 5626 5631 5636 5637 5637 5640 5642 5641 5645 5651 5655 5657 5658 5659 5661 5663 5666 5669 5669 5669 5670 5669 5669 5675 5678 5678 5683 5689 5687 5686 5688 5689 5690 5691 5692 5693 5693 5691 5690 5692 5696 5695 5690 5694 5704 5700 5697 5706 5710 5705 5704 5706 5708 5709 5709 5708 5707 5707 5708 5708 5709 5710 5710
5533 5537 5544 5547 5546 5549 5556 5563 5567 5568 5573 5576 5575 5579 5584 5587 5591 5595 5600 5605 5605 5605 5607 5607 5614 5623 5628 5629 5628 5626 5629 5632 5635 5641 5646 5647 5649 5650 5651 5653 5655 5658 5660 5660 5661 5662 5661 5662 5668 5670 5669 5674 5679 5678 5679 5681 5681 5682 5683 5684 5685 5685 5684 5685 5687 5690 5687 5683 5690 5694 5689 5693 5703 5704 5700 5701 5702 5704 5704 5702 5701 5701 5701 5701 5702 5702 5703 5703
5525 5529 5535 5537 5538 5543 5549 5554 5555 5556 5561 5566 5567 5571 5576 5579 5584 5590 5593 5594 5594 5597 5600 5602 5610 5619 5621 5619 5617 5616 5622 5628 5632 5638 5641 5639 5641 5644 5645 5646 5650 5652 5652 5652 5654 5655 5654 5655 5661 5662 5660 5664 5670 5670 5671 5672 5672 5674 5675 5677 5679 5680 5678 5678 5680 5682 5678 5677 5684 5686 5682 5689 5698 5698 5696 5697 5696 5696 5696 5695 5696 5695 5695 5695 5695 5695 5696 5696
5516 5520 5526 5527 5528 5533 5538 5542 5545 5547 5550 5554 5557 5563 5568 5572 5579 5584 5584 5584 5587 5591 5593 5597 5606 5612 5610 5607 5606 5610 5620 5627 5629 5632 5632 5630 5633 5637 5637 5638 5642 5643 5643 5645 5647 5648 5648 5649 5653 5654 5650 5653 5662 5664 5662 5663 5663 5662 5665 5671 5674 5673 5670 5671 5674 5675 5673 5673 5679 5678 5676 5685 5692 5691 5690 5689 5687 5688 5689 5689 5690 5689 5689 5689 5688 5689 5690 5691
5508 5512 5516 5518 5518 5523 5528 5532 5536 5537 5539 5544 5551 5557 5560 5565 5572 5574 5571 5574 5579 5583 5587 5591 5598 5600 5597 5595 5599 5609 5620 5623 5621 5622 5622 5622 5626 5628 5628 5629 5632 5633 5635 5638 5639 5640 5642 5642 5645 5646 5642 5646 5655 5656 5654 5655 5650 5647 5657 5668 5669 5665 5663 5665 5667 5668 5668 5669 5670 5670 5672 5680 5683 5681 5680 5682 5682 5682 5683 5682 5682 5681 5682 5682 5683 5684 5684 5685